Location: Key Biscayne
(25.6930°N, 80.1630°W)
Time: 00:35:55
(UTC-05:00)

N. Korean satellite - Visible Passes

Search period start: 23 November 2017 00:00
Search period end: 03 December 2017 00:00
Orbit: 460 x 514 km, 97.2° (Epoch: 22 November)

Date Brightness Start Highest point End Pass type
(mag) Time Alt. Az. Time Alt. Az. Time Alt. Az.
23 Nov 6.5 18:19:55 10° SSE 18:23:19 55° ENE 18:26:47 10° N visible
24 Nov 7.6 17:57:05 10° SE 17:59:55 23° ENE 18:02:48 10° NNE visible
24 Nov 10.0 19:32:21 10° WSW 19:33:23 11° W 19:34:26 10° WNW visible
25 Nov 8.9 19:06:53 10° SSW 19:09:48 24° W 19:12:44 10° NW visible
26 Nov 7.1 18:42:49 10° S 18:46:16 59° W 18:49:47 10° NNW visible
27 Nov 9.7 06:18:35 10° NE 06:21:27 21° E 06:24:18 10° SSE visible
27 Nov 6.6 18:19:22 10° SSE 18:22:47 55° ENE 18:26:18 10° N visible
28 Nov 7.6 17:56:32 10° SE 17:59:24 24° ENE 18:02:18 10° NNE visible
28 Nov 10.0 19:31:40 10° WSW 19:32:51 11° W 19:34:01 10° WNW visible
29 Nov 8.9 19:06:18 10° SSW 19:09:14 25° W 19:12:14 10° NW visible
30 Nov 7.1 18:42:13 10° S 18:45:41 59° W 18:49:14 10° NNW visible
01 Dec 9.7 06:18:03 10° NE 06:20:54 20° E 06:23:43 10° SSE visible
01 Dec 6.6 18:18:44 10° SSE 18:22:11 54° ENE 18:25:44 10° N visible
02 Dec 7.7 17:55:53 10° SE 17:58:46 24° ENE 18:01:43 10° NNE visible
02 Dec 10.0 19:30:55 10° WSW 19:32:13 12° W 19:33:32 10° WNW visible
